{"data":{"norad_id":28117,"epoch":"2026-09-19T20:45:07.067232Z","epoch_age_seconds":69345,"freshness":"FRESH","line1":"1 28117U 03057A   26262.86466513 -.00000103  00000+0  00000+0 0  9994","line2":"2 28117   9.0344  33.3130 0003854 160.4483 191.7031  1.00271463 83399","mean_motion":1.00271463,"eccentricity":0.0003854,"inclination_deg":9.0344,"raan_deg":33.313,"arg_perigee_deg":160.4483,"mean_anomaly_deg":191.7031,"bstar":0,"rev_number":8339,"period_min":1436.1015157423,"perigee_km":35770.434907234,"apogee_km":35802.935552209,"semimajor_km":42164.822229721,"source":"CELESTRAK","updated_at":"2026-09-20T09:00:35.122861Z"}}